TimeCDT,TemperatureF,Dew PointF,Humidity,Sea Level PressureIn,VisibilityMPH,Wind Direction,Wind SpeedMPH,Gust SpeedMPH,PrecipitationIn,Events,Conditions,WindDirDegrees,DateUTC
12:23 AM,48.2,46.4,93,29.17,10.0,ESE,4.6,-,N/A,,Overcast,120,2012-10-18 05:23:00
12:55 AM,48.0,46.9,96,29.19,10.0,ESE,3.5,-,N/A,,Overcast,110,2012-10-18 05:55:00
1:20 AM,48.2,46.4,93,29.19,10.0,Variable,3.5,-,N/A,,Overcast,0,2012-10-18 06:20:00
1:34 AM,48.2,46.4,93,29.20,10.0,SSE,4.6,-,N/A,,Overcast,160,2012-10-18 06:34:00
1:55 AM,48.0,46.0,93,29.21,10.0,Calm,Calm,-,N/A,,Overcast,0,2012-10-18 06:55:00
2:07 AM,48.2,46.4,93,29.20,10.0,Calm,Calm,-,N/A,,Overcast,0,2012-10-18 07:07:00
2:35 AM,48.2,46.4,93,29.20,10.0,ENE,3.5,-,N/A,,Overcast,70,2012-10-18 07:35:00
2:55 AM,48.0,46.9,96,29.22,10.0,ENE,3.5,-,N/A,,Mostly Cloudy,70,2012-10-18 07:55:00
3:11 AM,48.2,46.4,93,29.20,10.0,East,3.5,-,N/A,,Partly Cloudy,80,2012-10-18 08:11:00
3:55 AM,48.0,46.0,93,29.21,10.0,Calm,Calm,-,N/A,,Overcast,0,2012-10-18 08:55:00
4:55 AM,46.9,46.0,97,29.22,10.0,ENE,4.6,-,N/A,,Overcast,60,2012-10-18 09:55:00
5:55 AM,48.0,46.9,96,29.20,10.0,NNE,4.6,-,0.00,Rain,Light Rain,20,2012-10-18 10:55:00
6:53 AM,48.2,46.4,93,29.18,6.0,North,6.9,-,0.02,Rain,Light Rain,350,2012-10-18 11:53:00
6:55 AM,48.0,46.9,96,29.20,6.0,North,5.8,-,0.02,Rain,Light Rain,350,2012-10-18 11:55:00
7:10 AM,48.2,46.4,93,29.18,6.0,NNW,6.9,-,0.01,Rain,Light Rain,340,2012-10-18 12:10:00
7:55 AM,48.0,46.9,96,29.18,3.0,NNW,8.1,-,0.11,Rain,Rain,330,2012-10-18 12:55:00
8:44 AM,50.0,48.2,94,29.16,4.0,North,11.5,-,0.16,Rain,Rain,350,2012-10-18 13:44:00
8:55 AM,50.0,48.9,96,29.18,4.0,North,10.4,-,0.18,Rain,Rain,350,2012-10-18 13:55:00
9:55 AM,51.1,50.0,96,29.18,5.0,NNE,11.5,-,0.05,Rain,Light Rain,20,2012-10-18 14:55:00
10:55 AM,52.0,51.1,97,29.19,2.5,NNE,11.5,-,0.05,Rain,Light Rain,30,2012-10-18 15:55:00
11:17 AM,51.8,51.8,100,29.18,1.8,NNE,10.4,18.4,0.02,Rain,Light Rain,30,2012-10-18 16:17:00
11:23 AM,51.8,51.8,100,29.18,3.0,NNE,12.7,-,0.03,Rain,Light Rain,30,2012-10-18 16:23:00
11:55 AM,52.0,51.1,97,29.20,4.0,NNE,12.7,19.6,0.04,Rain,Light Rain,30,2012-10-18 16:55:00
12:22 PM,53.6,51.8,94,29.19,2.5,NNE,12.7,-,0.02,Rain,Light Rain,30,2012-10-18 17:22:00
12:45 PM,53.6,51.8,94,29.19,8.0,NNE,10.4,-,0.03,Rain,Light Rain,30,2012-10-18 17:45:00
12:55 PM,53.1,51.1,93,29.21,9.0,NE,11.5,-,0.04,Rain,Light Rain,40,2012-10-18 17:55:00
1:11 PM,53.6,51.8,94,29.20,2.5,NE,10.4,20.7,0.00,Rain,Light Rain,40,2012-10-18 18:11:00
1:21 PM,53.6,51.8,94,29.20,7.0,NE,10.4,17.3,0.01,Rain,Light Rain,40,2012-10-18 18:21:00
1:55 PM,53.1,52.0,96,29.22,4.0,NNE,11.5,-,0.01,Rain,Light Rain,30,2012-10-18 18:55:00
2:15 PM,53.6,51.8,94,29.21,2.5,NNE,12.7,19.6,0.01,Rain,Light Rain,30,2012-10-18 19:15:00
2:37 PM,53.6,51.8,94,29.22,3.0,NNE,12.7,19.6,0.03,Rain,Light Rain,30,2012-10-18 19:37:00
2:55 PM,53.1,52.0,96,29.24,2.5,NNE,12.7,19.6,0.04,Rain,Light Rain,30,2012-10-18 19:55:00
3:05 PM,53.6,51.8,94,29.23,1.8,NE,10.4,18.4,0.00,Rain,Light Rain,40,2012-10-18 20:05:00
3:24 PM,53.6,51.8,94,29.24,3.0,NE,12.7,-,0.01,Rain,Light Rain,40,2012-10-18 20:24:00
3:55 PM,54.0,52.0,93,29.28,10.0,NE,9.2,-,0.01,,Overcast,40,2012-10-18 20:55:00
4:19 PM,53.6,51.8,94,29.28,10.0,NE,10.4,-,N/A,,Overcast,50,2012-10-18 21:19:00
4:55 PM,54.0,52.0,93,29.31,10.0,NE,12.7,21.9,N/A,,Overcast,50,2012-10-18 21:55:00
5:09 PM,53.6,51.8,94,29.31,10.0,NE,11.5,20.7,N/A,,Overcast,50,2012-10-18 22:09:00
5:18 PM,53.6,51.8,94,29.32,10.0,NE,10.4,17.3,N/A,,Overcast,40,2012-10-18 22:18:00
5:55 PM,54.0,52.0,93,29.36,10.0,NE,10.4,18.4,N/A,,Overcast,40,2012-10-18 22:55:00
6:29 PM,53.6,51.8,94,29.36,10.0,NNE,10.4,-,0.00,,Overcast,30,2012-10-18 23:29:00
6:55 PM,53.1,52.0,96,29.39,5.0,NNE,10.4,-,0.00,Rain,Light Rain,20,2012-10-18 23:55:00
7:55 PM,53.1,51.1,93,29.41,10.0,NNE,11.5,-,0.03,,Overcast,30,2012-10-19 00:55:00
8:01 PM,53.6,51.8,94,29.39,10.0,NNE,9.2,-,N/A,,Overcast,30,2012-10-19 01:01:00
8:37 PM,53.6,51.8,94,29.40,10.0,NNE,11.5,17.3,N/A,,Overcast,30,2012-10-19 01:37:00
8:55 PM,52.0,50.0,93,29.43,9.0,North,16.1,24.2,N/A,,Overcast,10,2012-10-19 01:55:00
9:17 PM,51.8,50.0,94,29.42,7.0,North,16.1,23.0,0.00,Rain,Light Rain,10,2012-10-19 02:17:00
9:55 PM,52.0,50.0,93,29.45,9.0,NNE,12.7,21.9,0.00,,Overcast,20,2012-10-19 02:55:00
10:55 PM,51.1,48.9,92,29.47,10.0,North,17.3,26.5,0.00,Rain,Light Rain,360,2012-10-19 03:55:00
11:55 PM,50.0,48.0,93,29.49,10.0,North,17.3,23.0,0.00,,Overcast,10,2012-10-19 04:55:00